Time,TemperatureF,DewpointF,PressureIn,WindDirection,WindDirectionDegrees,WindSpeedMPH,WindSpeedGustMPH,Humidity,HourlyPrecipIn,Conditions,Clouds,dailyrainin,SoftwareType,DateUTC
2013-02-09 00:00:00,34.2,25.0,29.81,NNE,23,1.8,3.1,69,0.00,,,0.00,WUHU216HW,2013-02-09 07:00:00,
2013-02-09 00:10:00,33.8,24.7,29.81,NNE,23,2.7,3.4,69,0.00,,,0.00,WUHU216HW,2013-02-09 07:10:00,
2013-02-09 00:21:00,33.8,24.7,29.81,NE,45,3.1,3.1,69,0.00,,,0.00,WUHU216HW,2013-02-09 07:21:00,
2013-02-09 00:31:00,33.5,24.3,29.81,NE,45,1.8,3.8,69,0.00,,,0.00,WUHU216HW,2013-02-09 07:31:00,
2013-02-09 00:41:00,33.5,24.3,29.81,NE,45,1.8,5.8,69,0.00,,,0.00,WUHU216HW,2013-02-09 07:41:00,
2013-02-09 00:51:00,33.5,24.3,29.81,ENE,68,1.1,3.6,69,0.00,,,0.00,WUHU216HW,2013-02-09 07:51:00,
2013-02-09 01:02:00,33.3,24.2,29.81,NE,45,1.1,2.5,69,0.00,,,0.00,WUHU216HW,2013-02-09 08:02:00,
2013-02-09 01:12:00,33.3,24.2,29.81,NNW,338,1.6,2.5,69,0.00,,,0.00,WUHU216HW,2013-02-09 08:12:00,
2013-02-09 01:22:00,33.1,24.0,29.81,NE,45,1.6,2.5,69,0.00,,,0.00,WUHU216HW,2013-02-09 08:22:00,
2013-02-09 01:35:00,32.8,23.7,29.81,ENE,68,4.0,4.7,69,0.00,,,0.00,WUHU216HW,2013-02-09 08:35:00,
2013-02-09 01:45:00,32.8,23.7,29.81,ENE,68,2.7,4.7,69,0.00,,,0.00,WUHU216HW,2013-02-09 08:45:00,
2013-02-09 01:55:00,32.4,23.8,29.81,NE,45,2.0,4.3,70,0.00,,,0.00,WUHU216HW,2013-02-09 08:55:00,
2013-02-09 02:05:00,32.4,23.8,29.81,NE,45,1.8,3.8,70,0.00,,,0.00,WUHU216HW,2013-02-09 09:05:00,
2013-02-09 02:15:00,32.4,23.8,29.81,NE,45,0.9,2.5,70,0.00,,,0.00,WUHU216HW,2013-02-09 09:15:00,
2013-02-09 02:26:00,32.4,23.8,29.81,ENE,68,2.2,2.5,70,0.00,,,0.00,WUHU216HW,2013-02-09 09:26:00,
2013-02-09 02:36:00,32.4,23.8,29.82,NNE,23,0.7,3.4,70,0.00,,,0.00,WUHU216HW,2013-02-09 09:36:00,
2013-02-09 02:46:00,32.4,23.8,29.81,ENE,68,1.8,2.5,70,0.00,,,0.00,WUHU216HW,2013-02-09 09:46:00,
2013-02-09 02:56:00,32.2,23.6,29.82,NNE,23,4.5,5.1,70,0.00,,,0.00,WUHU216HW,2013-02-09 09:56:00,
2013-02-09 03:06:00,32.2,23.2,29.81,ENE,68,2.5,2.5,69,0.00,,,0.00,WUHU216HW,2013-02-09 10:06:00,
2013-02-09 03:16:00,32.0,23.4,29.81,ENE,68,4.7,4.7,70,0.00,,,0.00,WUHU216HW,2013-02-09 10:16:00,
2013-02-09 03:26:00,32.0,23.4,29.81,ENE,68,3.1,3.1,70,0.00,,,0.00,WUHU216HW,2013-02-09 10:26:00,
2013-02-09 03:37:00,32.0,23.0,29.81,NNE,23,2.5,2.5,69,0.00,,,0.00,WUHU216HW,2013-02-09 10:37:00,
2013-02-09 03:47:00,32.0,23.0,29.80,ENE,68,3.1,3.4,69,0.00,,,0.00,WUHU216HW,2013-02-09 10:47:00,
2013-02-09 03:57:00,32.0,22.7,29.80,NE,45,2.7,4.3,68,0.00,,,0.00,WUHU216HW,2013-02-09 10:57:00,
2013-02-09 04:07:00,32.0,22.7,29.80,ENE,68,0.2,3.6,68,0.00,,,0.00,WUHU216HW,2013-02-09 11:07:00,
2013-02-09 04:18:00,32.0,22.7,29.80,North,0,0.0,0.4,68,0.00,,,0.00,WUHU216HW,2013-02-09 11:18:00,
2013-02-09 04:28:00,32.0,22.7,29.80,North,0,0.0,0.9,68,0.00,,,0.00,WUHU216HW,2013-02-09 11:28:00,
2013-02-09 04:38:00,32.0,22.7,29.80,NNW,338,0.0,0.4,68,0.00,,,0.00,WUHU216HW,2013-02-09 11:38:00,
2013-02-09 04:48:00,32.0,23.0,29.80,East,90,0.0,0.4,69,0.00,,,0.00,WUHU216HW,2013-02-09 11:48:00,
2013-02-09 04:58:00,32.0,23.4,29.79,ESE,113,0.0,1.1,70,0.00,,,0.00,WUHU216HW,2013-02-09 11:58:00,
2013-02-09 05:08:00,32.0,23.4,29.79,ESE,113,0.0,0.0,70,0.00,,,0.00,WUHU216HW,2013-02-09 12:08:00,
2013-02-09 05:18:00,32.0,23.4,29.79,ESE,113,0.0,0.0,70,0.00,,,0.00,WUHU216HW,2013-02-09 12:18:00,
2013-02-09 05:29:00,32.0,23.4,29.79,ESE,113,0.4,0.7,70,0.00,,,0.00,WUHU216HW,2013-02-09 12:29:00,
2013-02-09 05:40:00,32.0,23.0,29.79,North,0,0.7,0.7,69,0.00,,,0.00,WUHU216HW,2013-02-09 12:40:00,
2013-02-09 05:50:00,32.0,23.0,29.79,NNE,23,0.0,0.4,69,0.00,,,0.00,WUHU216HW,2013-02-09 12:50:00,
2013-02-09 06:00:00,31.9,22.9,29.79,ENE,68,0.7,0.7,69,0.00,,,0.00,WUHU216HW,2013-02-09 13:00:00,
2013-02-09 06:11:00,31.7,22.7,29.79,North,0,1.1,1.6,69,0.00,,,0.00,WUHU216HW,2013-02-09 13:11:00,
2013-02-09 06:21:00,31.5,22.9,29.79,NNE,23,0.2,0.2,70,0.00,,,0.00,WUHU216HW,2013-02-09 13:21:00,
2013-02-09 06:32:00,31.5,23.2,29.79,NNE,23,0.0,0.0,71,0.00,,,0.00,WUHU216HW,2013-02-09 13:32:00,
2013-02-09 06:42:00,31.3,23.1,29.79,ESE,113,0.0,1.1,71,0.00,,,0.00,WUHU216HW,2013-02-09 13:42:00,
2013-02-09 06:52:00,31.3,23.1,29.79,East,90,0.4,1.1,71,0.00,,,0.00,WUHU216HW,2013-02-09 13:52:00,
2013-02-09 07:02:00,31.3,23.1,29.79,East,90,1.1,1.8,71,0.00,,,0.00,WUHU216HW,2013-02-09 14:02:00,
2013-02-09 07:12:00,31.3,23.1,29.79,NE,45,0.0,1.1,71,0.00,,,0.00,WUHU216HW,2013-02-09 14:12:00,
2013-02-09 07:23:00,31.3,22.7,29.80,NE,45,1.1,1.3,70,0.00,,,0.00,WUHU216HW,2013-02-09 14:23:00,
2013-02-09 07:33:00,31.3,22.7,29.80,NE,45,0.7,1.6,70,0.00,,,0.00,WUHU216HW,2013-02-09 14:33:00,
2013-02-09 07:44:00,31.1,22.5,29.80,NNE,23,0.4,1.1,70,0.00,,,0.00,WUHU216HW,2013-02-09 14:44:00,
2013-02-09 07:54:00,31.1,22.5,29.81,North,0,0.0,0.9,70,0.00,,,0.00,WUHU216HW,2013-02-09 14:54:00,
2013-02-09 08:05:00,31.0,22.3,29.80,North,0,0.9,1.1,70,0.00,,,0.00,WUHU216HW,2013-02-09 15:05:00,
2013-02-09 08:15:00,30.8,22.1,29.81,NNE,23,1.3,1.8,70,0.00,,,0.00,WUHU216HW,2013-02-09 15:15:00,
2013-02-09 08:25:00,30.6,22.0,29.81,ENE,68,1.1,1.1,70,0.00,,,0.00,WUHU216HW,2013-02-09 15:25:00,
2013-02-09 08:36:00,31.0,22.3,29.81,ENE,68,2.5,2.5,70,0.00,,,0.00,WUHU216HW,2013-02-09 15:36:00,
2013-02-09 08:47:00,30.8,22.1,29.81,North,0,1.1,3.4,70,0.00,,,0.00,WUHU216HW,2013-02-09 15:47:00,
2013-02-09 08:57:00,30.8,22.1,29.81,NNE,23,1.6,1.6,70,0.00,,,0.00,WUHU216HW,2013-02-09 15:57:00,
2013-02-09 09:07:00,31.0,22.3,29.81,North,0,1.6,2.9,70,0.00,,,0.00,WUHU216HW,2013-02-09 16:07:00,
2013-02-09 09:17:00,31.1,22.5,29.81,North,0,3.6,3.6,70,0.00,,,0.00,WUHU216HW,2013-02-09 16:17:00,
2013-02-09 09:27:00,31.1,22.5,29.81,North,0,1.1,2.7,70,0.00,,,0.00,WUHU216HW,2013-02-09 16:27:00,
2013-02-09 09:37:00,31.3,22.7,29.81,NNE,23,1.8,2.2,70,0.00,,,0.00,WUHU216HW,2013-02-09 16:37:00,
2013-02-09 09:48:00,31.3,22.3,29.81,North,0,1.8,2.5,69,0.00,,,0.00,WUHU216HW,2013-02-09 16:48:00,
2013-02-09 09:58:00,31.3,22.3,29.81,North,0,0.4,3.1,69,0.00,,,0.00,WUHU216HW,2013-02-09 16:58:00,
2013-02-09 10:08:00,31.7,22.7,29.81,North,0,0.7,1.8,69,0.00,,,0.00,WUHU216HW,2013-02-09 17:08:00,
2013-02-09 10:18:00,32.4,23.8,29.81,NNE,23,0.9,1.3,70,0.00,,,0.00,WUHU216HW,2013-02-09 17:18:00,
2013-02-09 10:29:00,32.8,23.7,29.81,NNE,23,1.1,2.2,69,0.00,,,0.00,WUHU216HW,2013-02-09 17:29:00,
2013-02-09 10:39:00,32.9,23.9,29.80,NNE,23,2.2,2.2,69,0.00,,,0.00,WUHU216HW,2013-02-09 17:39:00,
2013-02-09 10:49:00,33.3,23.9,29.80,ENE,68,0.9,1.3,68,0.00,,,0.00,WUHU216HW,2013-02-09 17:49:00,
2013-02-09 11:00:00,33.8,23.9,29.80,NNW,338,0.2,2.0,67,0.00,,,0.00,WUHU216HW,2013-02-09 18:00:00,
2013-02-09 11:10:00,34.0,23.8,29.80,NNW,338,0.9,1.1,66,0.00,,,0.00,WUHU216HW,2013-02-09 18:10:00,
2013-02-09 11:20:00,34.2,24.3,29.80,North,0,0.9,0.9,67,0.00,,,0.00,WUHU216HW,2013-02-09 18:20:00,
2013-02-09 11:31:00,34.0,24.1,29.80,NNW,338,0.4,1.3,67,0.00,,,0.00,WUHU216HW,2013-02-09 18:31:00,
2013-02-09 11:41:00,34.2,24.3,29.80,East,90,0.7,0.7,67,0.00,,,0.00,WUHU216HW,2013-02-09 18:41:00,
2013-02-09 11:51:00,34.9,24.7,29.79,ENE,68,2.5,2.5,66,0.00,,,0.00,WUHU216HW,2013-02-09 18:51:00,
2013-02-09 12:01:00,35.1,24.1,29.79,NNE,23,1.1,3.4,64,0.00,,,0.00,WUHU216HW,2013-02-09 19:01:00,
2013-02-09 12:11:00,35.1,24.1,29.78,ENE,68,3.4,3.4,64,0.00,,,0.00,WUHU216HW,2013-02-09 19:11:00,
2013-02-09 12:21:00,35.1,24.1,29.77,NNE,23,1.3,2.2,64,0.00,,,0.00,WUHU216HW,2013-02-09 19:21:00,
2013-02-09 12:31:00,35.3,24.3,29.77,North,0,3.8,3.8,64,0.00,,,0.00,WUHU216HW,2013-02-09 19:31:00,
2013-02-09 12:42:00,34.7,23.8,29.76,NNE,23,1.6,4.0,64,0.00,,,0.00,WUHU216HW,2013-02-09 19:42:00,
2013-02-09 12:52:00,34.7,23.8,29.76,NE,45,1.8,2.5,64,0.00,,,0.00,WUHU216HW,2013-02-09 19:52:00,
2013-02-09 13:03:00,34.6,23.6,29.76,North,0,2.2,3.1,64,0.00,,,0.00,WUHU216HW,2013-02-09 20:03:00,
2013-02-09 13:13:00,34.6,23.6,29.76,North,0,1.1,1.8,64,0.00,,,0.00,WUHU216HW,2013-02-09 20:13:00,
2013-02-09 13:23:00,34.6,23.9,29.76,North,0,1.1,3.4,65,0.00,,,0.00,WUHU216HW,2013-02-09 20:23:00,
2013-02-09 13:33:00,34.4,23.8,29.76,NNE,23,2.2,3.4,65,0.00,,,0.00,WUHU216HW,2013-02-09 20:33:00,
2013-02-09 13:43:00,34.2,23.6,29.76,NE,45,3.4,4.3,65,0.00,,,0.00,WUHU216HW,2013-02-09 20:43:00,
2013-02-09 13:53:00,34.2,23.6,29.76,NNE,23,1.8,2.7,65,0.00,,,0.00,WUHU216HW,2013-02-09 20:53:00,
2013-02-09 14:03:00,34.2,23.6,29.76,NNE,23,1.1,3.4,65,0.00,,,0.00,WUHU216HW,2013-02-09 21:03:00,
2013-02-09 14:14:00,34.2,23.9,29.76,NNE,23,0.9,1.1,66,0.00,,,0.00,WUHU216HW,2013-02-09 21:14:00,
2013-02-09 14:24:00,34.2,23.9,29.76,NNE,23,1.1,1.1,66,0.00,,,0.00,WUHU216HW,2013-02-09 21:24:00,
2013-02-09 14:34:00,34.2,23.9,29.76,NNE,23,1.8,2.5,66,0.00,,,0.00,WUHU216HW,2013-02-09 21:34:00,
2013-02-09 14:44:00,34.0,24.1,29.76,ENE,68,1.6,4.0,67,0.00,,,0.00,WUHU216HW,2013-02-09 21:44:00,
2013-02-09 14:54:00,33.7,24.1,29.76,NNE,23,2.2,3.4,68,0.00,,,0.00,WUHU216HW,2013-02-09 21:54:00,
2013-02-09 15:05:00,33.3,24.6,29.76,NNE,23,3.1,4.0,70,0.00,,,0.00,WUHU216HW,2013-02-09 22:05:00,
2013-02-09 15:15:00,33.3,24.6,29.76,NNE,23,1.8,3.4,70,0.00,,,0.00,WUHU216HW,2013-02-09 22:15:00,
2013-02-09 15:26:00,33.1,24.7,29.76,NNE,23,1.8,3.1,71,0.01,,,0.01,WUHU216HW,2013-02-09 22:26:00,
2013-02-09 15:36:00,33.3,25.2,29.76,North,0,2.2,2.5,72,0.02,,,0.03,WUHU216HW,2013-02-09 22:36:00,
2013-02-09 15:46:00,32.9,25.2,29.76,North,0,2.5,4.0,73,0.02,,,0.03,WUHU216HW,2013-02-09 22:46:00,
2013-02-09 15:57:00,32.8,25.7,29.76,North,0,2.9,2.9,75,0.02,,,0.03,WUHU216HW,2013-02-09 22:57:00,
2013-02-09 16:08:00,32.4,26.0,29.77,North,0,2.9,4.0,77,0.02,,,0.03,WUHU216HW,2013-02-09 23:08:00,
2013-02-09 16:18:00,32.2,26.5,29.78,NE,45,2.7,2.9,79,0.02,,,0.03,WUHU216HW,2013-02-09 23:18:00,
2013-02-09 16:29:00,32.0,26.6,29.78,NE,45,3.1,5.4,80,0.01,,,0.03,WUHU216HW,2013-02-09 23:29:00,
2013-02-09 16:40:00,32.0,26.9,29.78,NNE,23,1.1,3.4,81,0.00,,,0.03,WUHU216HW,2013-02-09 23:40:00,
2013-02-09 16:50:00,32.0,26.9,29.79,North,0,4.0,4.0,81,0.00,,,0.03,WUHU216HW,2013-02-09 23:50:00,
2013-02-09 17:00:00,32.0,26.6,29.79,NE,45,2.2,2.9,80,0.00,,,0.03,WUHU216HW,2013-02-10 00:00:00,
2013-02-09 17:11:00,32.0,26.9,29.79,NE,45,1.1,3.4,81,0.00,,,0.03,WUHU216HW,2013-02-10 00:11:00,
2013-02-09 17:21:00,31.7,26.3,29.79,NNE,23,2.7,2.7,80,0.00,,,0.03,WUHU216HW,2013-02-10 00:21:00,
2013-02-09 17:31:00,31.7,26.6,29.79,NNE,23,1.3,4.7,81,0.00,,,0.03,WUHU216HW,2013-02-10 00:31:00,
2013-02-09 17:42:00,31.5,26.4,29.80,NNE,23,2.0,2.5,81,0.00,,,0.03,WUHU216HW,2013-02-10 00:42:00,
2013-02-09 17:52:00,31.3,26.2,29.81,North,0,1.6,2.9,81,0.00,,,0.03,WUHU216HW,2013-02-10 00:52:00,
2013-02-09 18:02:00,31.3,26.8,29.81,North,0,1.1,2.7,83,0.00,,,0.03,WUHU216HW,2013-02-10 01:02:00,
2013-02-09 18:12:00,31.3,26.8,29.81,NNE,23,1.3,2.5,83,0.00,,,0.03,WUHU216HW,2013-02-10 01:12:00,
2013-02-09 18:22:00,31.1,26.7,29.81,NNE,23,2.2,2.9,83,0.01,,,0.03,WUHU216HW,2013-02-10 01:22:00,
2013-02-09 18:32:00,31.0,26.5,29.82,North,0,2.2,4.5,83,0.01,,,0.03,WUHU216HW,2013-02-10 01:32:00,
2013-02-09 18:42:00,31.0,26.7,29.82,NNE,23,1.8,4.9,84,0.01,,,0.03,WUHU216HW,2013-02-10 01:42:00,
2013-02-09 18:52:00,31.0,26.7,29.82,North,0,2.5,3.4,84,0.01,,,0.03,WUHU216HW,2013-02-10 01:52:00,
2013-02-09 19:03:00,30.8,26.6,29.83,NNE,23,2.5,4.0,84,0.01,,,0.03,WUHU216HW,2013-02-10 02:03:00,
2013-02-09 19:14:00,30.8,26.8,29.83,NNE,23,3.8,3.8,85,0.00,,,0.03,WUHU216HW,2013-02-10 02:14:00,
2013-02-09 19:24:00,30.6,26.6,29.83,North,0,4.0,4.0,85,0.00,,,0.03,WUHU216HW,2013-02-10 02:24:00,
2013-02-09 19:34:00,30.6,26.9,29.83,NE,45,1.1,3.1,86,0.00,,,0.03,WUHU216HW,2013-02-10 02:34:00,
2013-02-09 19:44:00,30.6,26.9,29.84,NE,45,3.6,3.6,86,0.00,,,0.03,WUHU216HW,2013-02-10 02:44:00,
2013-02-09 19:54:00,30.6,26.9,29.84,NE,45,2.7,4.3,86,0.00,,,0.03,WUHU216HW,2013-02-10 02:54:00,
2013-02-09 20:05:00,30.6,26.9,29.84,East,90,2.5,3.1,86,0.00,,,0.03,WUHU216HW,2013-02-10 03:05:00,
2013-02-09 20:15:00,30.6,26.6,29.84,North,0,0.9,1.8,85,0.00,,,0.03,WUHU216HW,2013-02-10 03:15:00,
2013-02-09 20:25:00,30.6,26.6,29.84,NNE,23,0.4,2.2,85,0.00,,,0.03,WUHU216HW,2013-02-10 03:25:00,
2013-02-09 20:35:00,30.6,26.6,29.84,NE,45,1.3,3.4,85,0.00,,,0.03,WUHU216HW,2013-02-10 03:35:00,
2013-02-09 20:45:00,30.6,26.6,29.85,ENE,68,2.0,3.6,85,0.00,,,0.03,WUHU216HW,2013-02-10 03:45:00,
2013-02-09 20:55:00,30.6,26.6,29.85,NE,45,2.9,2.9,85,0.00,,,0.03,WUHU216HW,2013-02-10 03:55:00,
2013-02-09 21:06:00,30.6,26.6,29.86,NE,45,0.9,1.8,85,0.00,,,0.03,WUHU216HW,2013-02-10 04:06:00,
2013-02-09 21:18:00,30.6,26.4,29.86,NE,45,1.8,1.8,84,0.00,,,0.03,WUHU216HW,2013-02-10 04:18:00,
2013-02-09 21:28:00,30.8,26.6,29.87,ENE,68,1.8,3.6,84,0.00,,,0.03,WUHU216HW,2013-02-10 04:28:00,
2013-02-09 21:38:00,30.8,26.6,29.87,NE,45,1.1,3.4,84,0.00,,,0.03,WUHU216HW,2013-02-10 04:38:00,
2013-02-09 21:48:00,30.8,26.3,29.87,ENE,68,1.8,3.6,83,0.00,,,0.03,WUHU216HW,2013-02-10 04:48:00,
2013-02-09 21:58:00,30.8,26.3,29.88,NNE,23,1.8,2.5,83,0.00,,,0.03,WUHU216HW,2013-02-10 04:58:00,
2013-02-09 22:08:00,30.8,26.3,29.88,NNE,23,1.1,3.4,83,0.00,,,0.03,WUHU216HW,2013-02-10 05:08:00,
2013-02-09 22:19:00,30.8,26.3,29.88,NE,45,1.6,2.7,83,0.00,,,0.03,WUHU216HW,2013-02-10 05:19:00,
2013-02-09 22:29:00,31.0,26.5,29.89,ENE,68,1.8,2.7,83,0.00,,,0.03,WUHU216HW,2013-02-10 05:29:00,
2013-02-09 22:39:00,31.0,26.5,29.89,NE,45,1.6,2.5,83,0.00,,,0.03,WUHU216HW,2013-02-10 05:39:00,
2013-02-09 22:50:00,31.0,26.1,29.89,NNE,23,3.1,3.4,82,0.00,,,0.03,WUHU216HW,2013-02-10 05:50:00,
2013-02-09 23:01:00,31.0,26.1,29.89,NE,45,2.0,4.0,82,0.00,,,0.03,WUHU216HW,2013-02-10 06:01:00,
2013-02-09 23:11:00,30.8,25.9,29.89,East,90,1.1,3.1,82,0.00,,,0.03,WUHU216HW,2013-02-10 06:11:00,
2013-02-09 23:21:00,30.6,25.7,29.89,ESE,113,2.5,4.0,82,0.00,,,0.03,WUHU216HW,2013-02-10 06:21:00,
2013-02-09 23:31:00,30.6,25.5,29.89,East,90,3.1,3.1,81,0.00,,,0.03,WUHU216HW,2013-02-10 06:31:00,
2013-02-09 23:41:00,30.4,25.3,29.90,East,90,3.4,4.0,81,0.00,,,0.03,WUHU216HW,2013-02-10 06:41:00,
2013-02-09 23:51:00,30.2,25.1,29.90,ENE,68,2.0,4.0,81,0.00,,,0.03,WUHU216HW,2013-02-10 06:51:00,